QPF
0.01 0.01 0.01 0.01 0.01 0.02 0.02 0.02 0.03 0.03 0.02 0.01 0.01 0.01 0.01 0.02 0.02 0.02 0.03 0.07 0.07 0.06 0.05 0.06 0.08 0.10 0.11 0.12 0.13 0.10 0.09 0.07 0.06 0.05 0.05 0.06 0.07 0.06
0.01 0.01 0.01 0.01 0.01 0.02 0.02 0.02 0.03 0.02 0.02 0.02 0.02 0.01 0.01 0.01 0.01 0.01 0.01 0.02 0.03 0.03 0.03 0.04 0.06 0.08 0.08 0.08 0.07 0.05 0.04 0.05 0.05 0.05 0.05 0.06 0.07 0.06
0.01 0.01 0.01 0.02 0.01 0.01 0.01 0.02 0.02 0.02 0.02 0.02 0.02 0.03 0.03 0.02 0.01 0.01 0.01 0.01 0.01 0.02 0.02 0.01 0.02 0.02 0.02 0.02 0.02 0.02 0.02 0.03 0.04 0.06 0.06 0.05 0.04 0.04
0.02 0.02 0.02 0.02 0.02 0.01 0.02 0.02 0.02 0.02 0.02 0.02 0.02 0.03 0.03 0.02 0.02 0.02 0.02 0.01 0.01 0.02 0.02 0.01 0.01 0.01 0.01 0.02 0.02 0.01 0.02 0.02 0.02 0.04 0.03 0.02 0.02 0.02
0.02 0.04 0.04 0.04 0.03 0.03 0.02 0.02 0.02 0.03 0.03 0.03 0.02 0.02 0.03 0.03 0.03 0.02 0.02 0.01 0.01 0.01 0.01 0.01 0.01 0.02 0.02 0.02 0.02 0.01 0.02 0.02 0.01 0.01 0.01 0.01 0.01 0.02
0.01 0.02 0.02 0.02 0.03 0.04 0.03 0.02 0.02 0.04 0.04 0.04 0.04 0.03 0.04 0.03 0.03 0.02 0.01 0.01 0.01 0.01 0.01 0.01 0.01 0.01 0.02 0.03 0.02 0.01 0.01 0.01 0.01 0.00 0.00 0.01 0.01 0.01
0.01 0.01 0.02 0.02 0.02 0.03 0.03 0.03 0.03 0.04 0.04 0.04 0.05 0.05 0.05 0.05 0.03 0.02 0.01 0.01 0.01 0.01 0.00 0.01 0.01 0.02 0.02 0.04 0.04 0.04 0.02 0.01 0.00 0.00 0.00 0.01 0.01 0.01
0.01 0.01 0.02 0.02 0.02 0.02 0.02 0.03 0.03 0.04 0.04 0.05 0.05 0.05 0.05 0.05 0.04 0.03 0.02 0.02 0.01 0.01 0.01 0.01 0.02 0.03 0.04 0.04 0.04 0.04 0.04 0.03 0.02 0.01 0.01 0.01 0.01 0.01
0.01 0.01 0.01 0.02 0.03 0.02 0.02 0.03 0.03 0.03 0.04 0.05 0.06 0.06 0.05 0.05 0.04 0.04 0.03 0.03 0.02 0.02 0.02 0.01 0.01 0.02 0.04 0.06 0.05 0.04 0.03 0.03 0.03 0.03 0.03 0.03 0.03 0.02
0.01 0.01 0.01 0.02 0.02 0.03 0.02 0.02 0.02 0.02 0.03 0.03 0.04 0.05 0.06 0.06 0.05 0.04 0.04 0.03 0.03 0.02 0.02 0.02 0.02 0.02 0.02 0.04 0.05 0.06 0.05 0.04 0.04 0.05 0.05 0.05 0.04 0.03
0.01 0.01 0.01 0.02 0.03 0.03 0.03 0.01 0.01 0.01 0.02 0.02 0.02 0.03 0.04 0.05 0.05 0.05 0.03 0.03 0.03 0.03 0.02 0.03 0.03 0.03 0.04 0.04 0.04 0.04 0.05 0.05 0.06 0.08 0.08 0.07 0.05 0.04
0.01 0.01 0.02 0.03 0.03 0.03 0.03 0.01 0.01 0.01 0.01 0.02 0.02 0.03 0.03 0.03 0.03 0.04 0.05 0.06 0.06 0.05 0.04 0.04 0.04 0.05 0.06 0.06 0.07 0.05 0.05 0.04 0.05 0.07 0.10 0.09 0.07 0.05
0.02 0.02 0.02 0.03 0.03 0.03 0.04 0.02 0.01 0.01 0.01 0.01 0.02 0.03 0.04 0.04 0.04 0.03 0.04 0.05 0.05 0.04 0.04 0.05 0.05 0.06 0.05 0.05 0.07 0.06 0.05 0.05 0.05 0.07 0.09 0.09 0.07 0.05
0.03 0.03 0.03 0.03 0.03 0.04 0.03 0.02 0.02 0.01 0.01 0.01 0.01 0.02 0.03 0.05 0.05 0.05 0.04 0.04 0.03 0.03 0.03 0.04 0.05 0.06 0.06 0.05 0.06 0.07 0.06 0.05 0.06 0.08 0.10 0.10 0.09 0.07
0.03 0.04 0.04 0.03 0.03 0.03 0.04 0.04 0.02 0.01 0.01 0.01 0.01 0.01 0.02 0.03 0.04 0.04 0.04 0.04 0.03 0.03 0.03 0.03 0.05 0.06 0.06 0.06 0.06 0.06 0.06 0.06 0.05 0.07 0.10 0.11 0.10 0.08
0.03 0.04 0.04 0.04 0.03 0.03 0.03 0.04 0.02 0.02 0.02 0.02 0.02 0.02 0.02 0.02 0.03 0.03 0.04 0.04 0.04 0.03 0.03 0.03 0.04 0.04 0.05 0.06 0.07 0.07 0.06 0.06 0.06 0.06 0.08 0.09 0.09 0.08
0.03 0.05 0.04 0.04 0.04 0.04 0.03 0.03 0.02 0.03 0.03 0.02 0.02 0.02 0.02 0.02 0.03 0.03 0.03 0.03 0.03 0.03 0.03 0.04 0.04 0.04 0.04 0.05 0.07 0.07 0.08 0.08 0.07 0.07 0.07 0.07 0.08 0.07
0.03 0.03 0.03 0.03 0.03 0.03 0.03 0.02 0.02 0.02 0.03 0.02 0.02 0.02 0.02 0.02 0.02 0.02 0.02 0.03 0.03 0.03 0.04 0.04 0.04 0.04 0.03 0.05 0.05 0.05 0.06 0.07 0.07 0.07 0.06 0.06 0.07 0.06
0.03 0.04 0.04 0.03 0.03 0.02 0.03 0.03 0.02 0.02 0.03 0.03 0.03 0.02 0.02 0.02 0.02 0.01 0.02 0.02 0.02 0.03 0.04 0.04 0.04 0.03 0.03 0.04 0.05 0.05 0.05 0.04 0.05 0.05 0.05 0.04 0.04 0.05
0.02 0.03 0.03 0.03 0.03 0.03 0.03 0.03 0.03 0.03 0.03 0.04 0.04 0.04 0.03 0.03 0.03 0.02 0.02 0.03 0.03 0.04 0.04 0.04 0.05 0.04 0.04 0.03 0.03 0.04 0.05 0.05 0.04 0.04 0.04 0.03 0.03 0.03
0.01 0.02 0.02 0.02 0.02 0.02 0.02 0.02 0.02 0.02 0.02 0.03 0.03 0.03 0.03 0.02 0.02 0.02 0.02 0.02 0.02 0.03 0.04 0.04 0.05 0.06 0.05 0.04 0.03 0.03 0.04 0.06 0.05 0.03 0.03 0.04 0.03 0.03
0.02 0.02 0.02 0.01 0.01 0.01 0.01 0.01 0.01 0.01 0.01 0.01 0.02 0.02 0.02 0.02 0.01 0.01 0.02 0.02 0.03 0.03 0.03 0.04 0.04 0.04 0.05 0.05 0.05 0.04 0.04 0.05 0.05 0.05 0.04 0.04 0.03 0.02
0.02 0.02 0.02 0.01 0.01 0.01 0.01 0.01 0.01 0.01 0.01 0.01 0.01 0.02 0.02 0.02 0.02 0.02 0.02 0.02 0.02 0.03 0.03 0.03 0.03 0.03 0.04 0.05 0.06 0.04 0.04 0.04 0.04 0.04 0.05 0.05 0.03 0.02
MSLP
1025.09 1025.29 1025.55 1025.86 1026.20 1026.57 1026.96 1027.35 1027.75 1028.14 1028.52 1028.88 1029.20 1029.47 1029.66 1029.75 1029.74 1029.61 1029.37 1029.04 1028.66 1028.26 1027.88 1027.55 1027.31 1027.17 1027.12 1027.17 1027.27 1027.42 1027.57 1027.71 1027.81 1027.86 1027.85 1027.79 1027.68 1027.52
1025.35 1025.51 1025.69 1025.92 1026.19 1026.49 1026.84 1027.21 1027.62 1028.04 1028.47 1028.89 1029.28 1029.61 1029.87 1030.02 1030.05 1029.97 1029.77 1029.48 1029.14 1028.78 1028.43 1028.15 1027.94 1027.82 1027.79 1027.84 1027.94 1028.07 1028.20 1028.31 1028.39 1028.43 1028.42 1028.37 1028.28 1028.15
1025.62 1025.73 1025.86 1026.02 1026.21 1026.45 1026.75 1027.10 1027.50 1027.94 1028.41 1028.89 1029.34 1029.74 1030.06 1030.28 1030.37 1030.35 1030.20 1029.97 1029.68 1029.38 1029.09 1028.85 1028.68 1028.59 1028.58 1028.62 1028.71 1028.81 1028.90 1028.97 1029.01 1029.02 1029.00 1028.94 1028.86 1028.76
1025.87 1025.97 1026.05 1026.15 1026.29 1026.48 1026.73 1027.05 1027.44 1027.90 1028.39 1028.91 1029.42 1029.88 1030.27 1030.54 1030.70 1030.74 1030.66 1030.49 1030.27 1030.03 1029.80 1029.62 1029.50 1029.44 1029.43 1029.47 1029.53 1029.59 1029.64 1029.66 1029.65 1029.62 1029.56 1029.49 1029.41 1029.32
1026.11 1026.20 1026.28 1026.35 1026.45 1026.59 1026.81 1027.10 1027.47 1027.92 1028.44 1028.98 1029.52 1030.03 1030.46 1030.79 1031.01 1031.11 1031.10 1031.00 1030.86 1030.68 1030.52 1030.40 1030.31 1030.28 1030.28 1030.31 1030.35 1030.37 1030.37 1030.33 1030.27 1030.19 1030.11 1030.01 1029.92 1029.83
1026.31 1026.44 1026.52 1026.60 1026.68 1026.80 1026.99 1027.25 1027.60 1028.03 1028.54 1029.08 1029.63 1030.16 1030.62 1030.99 1031.26 1031.42 1031.48 1031.45 1031.38 1031.28 1031.18 1031.11 1031.06 1031.05 1031.06 1031.08 1031.09 1031.08 1031.03 1030.95 1030.85 1030.73 1030.61 1030.50 1030.39 1030.30
1026.48 1026.66 1026.78 1026.88 1026.97 1027.08 1027.25 1027.49 1027.81 1028.21 1028.68 1029.20 1029.73 1030.26 1030.73 1031.12 1031.43 1031.63 1031.75 1031.79 1031.78 1031.75 1031.71 1031.68 1031.68 1031.69 1031.71 1031.72 1031.71 1031.67 1031.59 1031.49 1031.35 1031.21 1031.07 1030.95 1030.84 1030.74
1026.60 1026.83 1027.02 1027.15 1027.27 1027.40 1027.56 1027.78 1028.06 1028.42 1028.85 1029.32 1029.82 1030.31 1030.77 1031.17 1031.49 1031.73 1031.90 1031.99 1032.04 1032.06 1032.08 1032.10 1032.12 1032.16 1032.18 1032.19 1032.18 1032.13 1032.04 1031.92 1031.78 1031.63 1031.49 1031.36 1031.26 1031.17
1026.63 1026.94 1027.19 1027.39 1027.55 1027.71 1027.87 1028.08 1028.33 1028.65 1029.02 1029.44 1029.88 1030.33 1030.76 1031.15 1031.47 1031.73 1031.93 1032.07 1032.16 1032.23 1032.29 1032.35 1032.40 1032.45 1032.49 1032.51 1032.50 1032.45 1032.37 1032.26 1032.13 1032.00 1031.87 1031.76 1031.67 1031.60
1026.54 1026.93 1027.25 1027.52 1027.75 1027.95 1028.15 1028.35 1028.59 1028.87 1029.20 1029.56 1029.95 1030.35 1030.74 1031.10 1031.41 1031.68 1031.89 1032.06 1032.19 1032.29 1032.39 1032.47 1032.55 1032.61 1032.67 1032.70 1032.70 1032.67 1032.61 1032.52 1032.42 1032.32 1032.22 1032.14 1032.07 1032.02
1026.34 1026.79 1027.20 1027.55 1027.85 1028.11 1028.35 1028.58 1028.83 1029.09 1029.38 1029.71 1030.05 1030.40 1030.75 1031.08 1031.38 1031.64 1031.86 1032.04 1032.18 1032.31 1032.42 1032.52 1032.61 1032.69 1032.75 1032.80 1032.82 1032.82 1032.78 1032.73 1032.67 1032.60 1032.54 1032.49 1032.46 1032.43
1026.03 1026.55 1027.03 1027.46 1027.84 1028.17 1028.47 1028.75 1029.02 1029.30 1029.59 1029.89 1030.21 1030.53 1030.84 1031.15 1031.42 1031.67 1031.88 1032.06 1032.21 1032.34 1032.45 1032.56 1032.65 1032.74 1032.81 1032.87 1032.90 1032.92 1032.92 1032.90 1032.87 1032.84 1032.82 1032.80 1032.79 1032.78
1025.65 1026.22 1026.77 1027.27 1027.73 1028.14 1028.52 1028.86 1029.18 1029.49 1029.79 1030.10 1030.41 1030.72 1031.02 1031.30 1031.56 1031.79 1031.99 1032.16 1032.30 1032.42 1032.53 1032.62 1032.71 1032.79 1032.86 1032.92 1032.97 1033.00 1033.02 1033.03 1033.03 1033.03 1033.02 1033.03 1033.03 1033.04
1025.24 1025.85 1026.44 1027.01 1027.54 1028.03 1028.47 1028.88 1029.27 1029.62 1029.97 1030.31 1030.63 1030.95 1031.25 1031.52 1031.77 1031.99 1032.18 1032.33 1032.46 1032.56 1032.65 1032.73 1032.80 1032.87 1032.93 1032.99 1033.03 1033.07 1033.09 1033.11 1033.12 1033.13 1033.14 1033.15 1033.16 1033.16
1024.81 1025.45 1026.08 1026.69 1027.27 1027.82 1028.33 1028.80 1029.25 1029.66 1030.06 1030.44 1030.80 1031.14 1031.45 1031.74 1031.99 1032.20 1032.38 1032.52 1032.63 1032.72 1032.79 1032.85 1032.90 1032.95 1032.99 1033.04 1033.07 1033.10 1033.12 1033.14 1033.14 1033.14 1033.14 1033.14 1033.13 1033.12
1024.38 1025.03 1025.67 1026.31 1026.92 1027.50 1028.06 1028.58 1029.07 1029.54 1029.99 1030.42 1030.82 1031.19 1031.54 1031.84 1032.11 1032.33 1032.51 1032.65 1032.75 1032.83 1032.89 1032.93 1032.97 1033.00 1033.03 1033.06 1033.08 1033.09 1033.10 1033.09 1033.07 1033.05 1033.03 1032.99 1032.96 1032.92
1023.92 1024.57 1025.21 1025.84 1026.45 1027.04 1027.61 1028.16 1028.69 1029.20 1029.69 1030.16 1030.61 1031.03 1031.41 1031.76 1032.05 1032.30 1032.49 1032.65 1032.76 1032.84 1032.90 1032.94 1032.97 1033.00 1033.02 1033.03 1033.04 1033.03 1033.01 1032.97 1032.92 1032.87 1032.80 1032.73 1032.66 1032.58
1023.39 1024.02 1024.64 1025.24 1025.83 1026.41 1026.97 1027.52 1028.06 1028.60 1029.12 1029.63 1030.12 1030.59 1031.02 1031.40 1031.73 1032.02 1032.25 1032.44 1032.58 1032.69 1032.77 1032.83 1032.88 1032.91 1032.93 1032.94 1032.93 1032.91 1032.86 1032.79 1032.71 1032.61 1032.50 1032.38 1032.26 1032.14
1022.75 1023.35 1023.93 1024.49 1025.04 1025.59 1026.12 1026.66 1027.20 1027.75 1028.29 1028.83 1029.36 1029.86 1030.34 1030.77 1031.15 1031.49 1031.78 1032.01 1032.20 1032.36 1032.48 1032.58 1032.66 1032.72 1032.76 1032.78 1032.77 1032.73 1032.67 1032.57 1032.46 1032.32 1032.16 1032.00 1031.83 1031.67
1021.96 1022.53 1023.07 1023.59 1024.10 1024.60 1025.11 1025.62 1026.15 1026.69 1027.25 1027.81 1028.36 1028.90 1029.42 1029.90 1030.34 1030.73 1031.08 1031.38 1031.64 1031.86 1032.05 1032.21 1032.34 1032.44 1032.51 1032.55 1032.56 1032.52 1032.44 1032.33 1032.18 1032.01 1031.82 1031.62 1031.41 1031.21
1021.04 1021.57 1022.07 1022.55 1023.01 1023.48 1023.96 1024.46 1024.98 1025.52 1026.07 1026.65 1027.22 1027.79 1028.35 1028.87 1029.36 1029.81 1030.22 1030.59 1030.92 1031.22 1031.48 1031.71 1031.91 1032.07 1032.19 1032.27 1032.29 1032.27 1032.19 1032.07 1031.91 1031.71 1031.49 1031.26 1031.03 1030.79
1020.01 1020.50 1020.97 1021.42 1021.86 1022.30 1022.77 1023.25 1023.76 1024.30 1024.87 1025.44 1026.03 1026.62 1027.20 1027.76 1028.29 1028.79 1029.26 1029.70 1030.10 1030.47 1030.81 1031.12 1031.39 1031.61 1031.79 1031.91 1031.97 1031.96 1031.90 1031.78 1031.61 1031.41 1031.17 1030.92 1030.67 1030.43
1018.96 1019.41 1019.84 1020.27 1020.69 1021.13 1021.59 1022.07 1022.59 1023.13 1023.69 1024.28 1024.87 1025.47 1026.06 1026.63 1027.19 1027.72 1028.24 1028.73 1029.20 1029.64 1030.05 1030.43 1030.77 1031.07 1031.30 1031.47 1031.57 1031.59 1031.55 1031.44 1031.28 1031.08 1030.84 1030.59 1030.34 1030.09
Thickness
5642 5642 5641 5641 5641 5640 5640 5639 5636 5634 5635 5638 5639 5641 5642 5644 5644 5646 5647 5648 5649 5651 5652 5653 5654 5654 5654 5655 5654 5654 5653 5653 5653 5652 5652 5652 5652 5651
5637 5637 5637 5637 5636 5636 5636 5635 5634 5633 5632 5634 5634 5636 5637 5638 5639 5640 5641 5643 5644 5645 5646 5647 5648 5648 5648 5649 5648 5648 5648 5647 5647 5647 5646 5646 5646 5646
5633 5632 5632 5632 5632 5631 5630 5630 5629 5629 5628 5628 5629 5630 5631 5632 5633 5635 5636 5637 5638 5639 5640 5641 5642 5643 5643 5643 5643 5643 5642 5642 5642 5641 5641 5640 5640 5640
5627 5627 5627 5628 5626 5626 5625 5625 5625 5625 5624 5622 5623 5624 5625 5627 5628 5628 5629 5631 5632 5633 5634 5635 5635 5636 5637 5637 5637 5637 5637 5637 5636 5636 5635 5635 5634 5634
5622 5622 5622 5622 5621 5621 5621 5620 5620 5620 5619 5618 5617 5618 5619 5620 5621 5622 5623 5624 5625 5626 5627 5628 5629 5629 5630 5631 5631 5632 5632 5632 5631 5630 5630 5629 5629 5628
5618 5618 5617 5617 5617 5617 5616 5615 5614 5613 5612 5612 5612 5612 5612 5614 5614 5614 5615 5616 5617 5619 5619 5620 5621 5622 5623 5624 5626 5626 5626 5626 5626 5625 5625 5624 5623 5623
5613 5613 5613 5614 5614 5613 5612 5610 5609 5607 5606 5605 5605 5605 5606 5606 5607 5607 5607 5608 5609 5610 5611 5612 5613 5614 5615 5617 5619 5620 5620 5620 5620 5619 5619 5618 5618 5617
5608 5608 5609 5609 5609 5609 5608 5607 5605 5603 5601 5600 5599 5600 5601 5602 5602 5602 5601 5601 5602 5603 5603 5604 5605 5606 5608 5610 5612 5613 5614 5614 5614 5613 5613 5613 5612 5612
5604 5603 5604 5604 5604 5603 5602 5601 5600 5600 5600 5599 5597 5596 5597 5598 5597 5597 5596 5596 5596 5597 5596 5597 5598 5600 5602 5603 5605 5607 5607 5608 5607 5607 5606 5606 5606 5605
5599 5599 5598 5598 5599 5598 5596 5594 5593 5593 5593 5593 5594 5594 5594 5594 5593 5593 5592 5590 5589 5589 5590 5590 5592 5593 5596 5597 5598 5599 5600 5600 5600 5600 5599 5599 5599 5598
5594 5594 5593 5593 5594 5593 5591 5589 5587 5586 5587 5587 5587 5587 5588 5587 5586 5585 5584 5584 5583 5583 5583 5583 5585 5586 5588 5589 5590 5591 5591 5591 5591 5591 5592 5591 5591 5590
5587 5587 5588 5588 5588 5587 5585 5583 5581 5580 5579 5579 5579 5579 5579 5580 5579 5579 5578 5577 5576 5576 5576 5575 5576 5577 5579 5581 5582 5582 5582 5583 5583 5583 5583 5583 5582 5581
5581 5581 5581 5582 5581 5581 5579 5578 5577 5575 5573 5571 5571 5570 5570 5570 5571 5571 5570 5571 5570 5570 5570 5569 5568 5568 5569 5570 5572 5572 5572 5573 5574 5574 5574 5573 5572 5571
5576 5575 5575 5576 5575 5574 5572 5572 5571 5568 5565 5563 5561 5561 5561 5561 5562 5562 5562 5562 5563 5563 5563 5562 5561 5561 5560 5560 5561 5562 5562 5563 5564 5565 5564 5563 5562 5561
5570 5570 5569 5568 5567 5566 5566 5565 5563 5559 5557 5554 5553 5553 5553 5553 5553 5553 5553 5553 5553 5554 5553 5553 5553 5553 5552 5551 5550 5551 5551 5552 5552 5553 5552 5551 5550 5550
5562 5561 5561 5559 5558 5557 5557 5555 5553 5552 5550 5548 5546 5545 5544 5544 5544 5544 5543 5543 5543 5543 5543 5543 5543 5543 5542 5541 5540 5540 5540 5540 5541 5540 5539 5539 5538 5538
5553 5551 5550 5549 5548 5547 5546 5545 5544 5543 5541 5539 5537 5536 5535 5535 5535 5534 5534 5534 5533 5533 5533 5532 5532 5531 5532 5531 5530 5531 5529 5528 5529 5528 5528 5528 5528 5528
5545 5542 5541 5539 5539 5538 5537 5536 5535 5534 5532 5531 5529 5528 5527 5526 5525 5524 5524 5524 5523 5523 5523 5522 5521 5520 5520 5520 5520 5520 5519 5518 5518 5517 5516 5516 5518 5518
5537 5534 5533 5531 5531 5530 5529 5528 5527 5526 5524 5523 5521 5520 5519 5517 5515 5514 5514 5513 5513 5513 5512 5511 5510 5509 5509 5511 5512 5510 5509 5508 5507 5506 5505 5505 5506 5507
5528 5527 5525 5524 5523 5523 5521 5520 5519 5517 5516 5514 5513 5512 5510 5508 5506 5505 5504 5503 5503 5502 5501 5500 5499 5499 5500 5500 5501 5500 5498 5497 5496 5495 5494 5493 5493 5494
5520 5519 5518 5517 5516 5515 5514 5512 5511 5509 5508 5506 5505 5503 5501 5499 5498 5496 5495 5494 5493 5492 5491 5491 5490 5489 5488 5487 5487 5489 5488 5486 5486 5484 5483 5481 5481 5481
5514 5512 5511 5510 5509 5507 5506 5504 5502 5500 5499 5498 5496 5495 5493 5491 5490 5488 5487 5485 5484 5483 5483 5482 5480 5478 5477 5477 5478 5478 5478 5477 5476 5474 5473 5473 5471 5472
5508 5506 5505 5504 5502 5500 5498 5496 5494 5493 5491 5489 5488 5486 5484 5483 5482 5480 5479 5477 5475 5474 5472 5471 5469 5467 5467 5466 5466 5466 5466 5466 5465 5465 5465 5465 5464 5464